FW9116 Weather Reports


Display with metric or nautical units.
time (UTC)temp
F
wind
direction
speed
MPH
gust
MPH
rain 1hr
in
rain 24hr
in
rain mn
in
humidity
%
barometer
mb
20260509202557 75 271 1.0 9.0 0.00 0.00 0.00 46 1017.1
20260509202056 74 20 1.0 6.0 0.00 0.00 0.00 47 1017.1
20260509201611 73 310 2.0 7.0 0.00 0.00 0.00 49 1017.1
20260509201100 73 301 2.0 11.0 0.00 0.00 0.00 46 1017.2
20260509200557 73 0 2.0 11.0 0.00 0.00 0.00 50 1017.4
20260509200108 72 200 3.0 11.0 0.00 0.00 0.00 52 1017.6
20260509195600 72 0 2.0 11.0 0.00 0.00 0.00 52 1017.6
20260509195057 72 337 2.0 7.0 0.00 0.00 0.00 51 1017.6
20260509194557 73 203 1.0 6.0 0.00 0.00 0.00 50 1017.7
20260509194055 72 0 1.0 8.0 0.00 0.00 0.00 54 1017.8
20260509193555 71 319 2.0 9.0 0.00 0.00 0.00 53 1017.9
20260509193058 71 31 1.0 9.0 0.00 0.00 0.00 54 1017.9
20260509192557 71 298 2.0 9.0 0.00 0.00 0.00 55 1018.0
20260509192054 70 349 3.0 9.0 0.00 0.00 0.00 55 1018.1
20260509191556 71 320 1.0 8.0 0.00 0.00 0.00 55 1018.1
20260509191057 69 98 2.0 9.0 0.00 0.00 0.00 57 1018.1
20260509190557 69 314 3.0 9.0 0.00 0.00 0.00 58 1018.2
20260509190057 68 5 2.0 8.0 0.00 0.00 0.00 59 1018.1
20260509185555 69 294 2.0 5.0 0.00 0.00 0.00 58 1018.3
20260509185055 70 352 1.0 5.0 0.00 0.00 0.00 58 1018.5
20260509184608 70 328 1.0 5.0 0.00 0.00 0.00 58 1018.5
20260509184055 69 0 1.0 10.0 0.00 0.00 0.00 59 1018.7
20260509183556 67 25 2.0 10.0 0.00 0.00 0.00 60 1018.8
20260509183058 68 318 2.0 7.0 0.00 0.00 0.00 61 1018.7
20260509182555 68 43 2.0 6.0 0.00 0.00 0.00 61 1018.8
20260509182054 67 54 2.0 9.0 0.00 0.00 0.00 59 1018.9
20260509181619 68 0 1.0 9.0 0.00 0.00 0.00 61 1018.8
20260509181058 66 5 2.0 8.0 0.00 0.00 0.00 63 1018.9
20260509180555 67 5 2.0 8.0 0.00 0.00 0.00 63 1018.8
20260509180058 65 336 2.0 7.0 0.00 0.00 0.00 65 1018.9
20260509175554 65 9 2.0 7.0 0.00 0.00 0.00 66 1018.8
20260509175054 65 350 3.0 7.0 0.00 0.00 0.00 65 1018.9
20260509174559 65 19 2.0 8.0 0.00 0.00 0.00 66 1018.9
20260509174058 64 11 2.0 8.0 0.00 0.00 0.00 67 1019.1
20260509173557 63 347 1.0 8.0 0.00 0.00 0.00 69 1019.2
20260509173104 63 317 2.0 7.0 0.00 0.00 0.00 69 1019.2
20260509172558 64 324 1.0 5.0 0.00 0.00 0.00 69 1019.3
20260509172100 63 28 1.0 8.0 0.00 0.00 0.00 69 1019.4
20260509171600 62 13 3.0 8.0 0.00 0.00 0.00 71 1019.5
20260509171057 61 5 3.0 8.0 0.00 0.00 0.00 71 1019.5
20260509170558 61 33 3.0 9.0 0.00 0.00 0.00 71 1019.7
20260509170059 61 70 3.0 9.0 0.00 0.00 0.00 72 1019.6
20260509165554 60 344 3.0 9.0 0.00 0.00 0.00 73 1019.5
20260509165058 61 34 3.0 9.0 0.00 0.00 0.00 73 1019.7
20260509164557 61 94 3.0 8.0 0.00 0.00 0.00 74 1019.8
20260509164058 60 80 3.0 8.0 0.00 0.00 0.00 74 1019.9
20260509163602 60 5 3.0 8.0 0.00 0.00 0.00 75 1020.0
20260509163102 59 5 2.0 7.0 0.00 0.00 0.00 75 1020.0
20260509162559 59 348 3.0 7.0 0.00 0.00 0.00 75 1020.2
20260509162057 59 5 2.0 7.0 0.00 0.00 0.00 77 1020.3
20260509161604 58 0 2.0 7.0 0.00 0.00 0.00 78 1020.3
20260509161055 58 196 0.0 5.0 0.00 0.00 0.00 78 1020.4
20260509160602 58 9 1.0 5.0 0.00 0.00 0.00 78 1020.4
20260509160055 57 314 2.0 5.0 0.00 0.00 0.00 79 1020.4
20260509155554 57 40 1.0 5.0 0.00 0.00 0.00 78 1020.3
20260509155056 57 0 2.0 7.0 0.00 0.00 0.00 80 1020.3
20260509154555 57 334 2.0 7.0 0.00 0.00 0.00 81 1020.3
20260509154058 56 86 3.0 8.0 0.00 0.00 0.00 81 1020.3
20260509153555 56 46 3.0 8.0 0.00 0.00 0.00 81 1020.3
20260509153056 56 22 1.0 4.0 0.00 0.00 0.00 82 1020.4
20260509152555 56 5 1.0 6.0 0.00 0.00 0.00 83 1020.6
20260509152056 55 350 2.0 9.0 0.00 0.00 0.00 84 1020.6
20260509151603 54 36 2.0 9.0 0.00 0.00 0.00 84 1020.7
20260509151055 54 55 4.0 9.0 0.00 0.00 0.00 84 1020.8
20260509150555 54 47 2.0 8.0 0.00 0.00 0.00 85 1020.8
20260509150055 54 42 2.0 5.0 0.00 0.00 0.00 86 1020.9
20260509145556 53 360 2.0 6.0 0.00 0.00 0.00 86 1021.0
20260509145058 53 352 2.0 8.0 0.00 0.00 0.00 87 1020.9
20260509144607 53 14 1.0 8.0 0.00 0.00 0.00 87 1020.8
20260509144100 53 46 2.0 5.0 0.00 0.00 0.00 88 1020.7
20260509143555 53 360 1.0 5.0 0.00 0.00 0.00 88 1020.7
20260509143119 52 0 3.0 5.0 0.00 0.00 0.00 89 1020.6
20260509142554 52 337 1.0 5.0 0.00 0.00 0.00 89 1020.8
20260509142100 52 5 1.0 4.0 0.00 0.00 0.00 89 1020.8
20260509141557 52 5 1.0 4.0 0.00 0.00 0.00 90 1020.8
20260509141056 51 28 1.0 4.0 0.00 0.00 0.00 90 1020.7
20260509140555 51 10 1.0 4.0 0.00 0.00 0.00 91 1020.7
20260509140105 51 38 1.0 4.0 0.00 0.00 0.00 91 1020.7
20260509135558 50 59 2.0 4.0 0.00 0.00 0.00 91 1020.7
20260509135059 50 53 1.0 4.0 0.00 0.00 0.00 92 1020.7
20260509134612 50 22 1.0 4.0 0.00 0.00 0.00 92 1020.6
20260509134055 50 34 1.0 4.0 0.00 0.00 0.00 92 1020.6
20260509133555 50 13 1.0 4.0 0.00 0.00 0.00 92 1020.5
20260509133057 50 44 1.0 4.0 0.00 0.00 0.00 93 1020.5
20260509132557 49 0 1.0 3.0 0.00 0.00 0.00 93 1020.5
20260509132058 49 11 0.0 1.0 0.00 0.00 0.00 93 1020.5
20260509131556 49 11 0.0 2.0 0.00 0.00 0.00 93 1020.5
20260509131054 49 0 0.0 3.0 0.00 0.00 0.00 92 1020.6
20260509130558 49 11 0.0 3.0 0.00 0.00 0.00 92 1020.6
20260509125555 49 29 1.0 4.0 0.00 0.00 0.00 93 1020.5
20260509125054 49 17 2.0 4.0 0.00 0.00 0.00 93 1020.5
20260509124557 49 21 0.0 2.0 0.00 0.00 0.00 93 1020.6
20260509124054 49 0 0.0 0.0 0.00 0.00 0.00 92 1020.9
20260509123555 49 0 0.0 0.0 0.00 0.00 0.00 92 1020.8
20260509123131 49 0 0.0 0.0 0.00 0.00 0.00 92 1020.8
20260509122557 49 0 0.0 0.0 0.00 0.00 0.00 92 1020.8
20260509122057 49 0 0.0 0.0 0.00 0.00 0.00 92 1020.8
20260509121611 49 0 0.0 0.0 0.00 0.00 0.00 91 1020.8
20260509121055 49 0 0.0 0.0 0.00 0.00 0.00 92 1020.7
20260509120554 49 0 0.0 0.0 0.00 0.00 0.00 91 1020.5
20260509120114 49 0 0.0 0.0 0.00 0.00 0.00 91 1020.6
20260509115557 49 0 0.0 0.0 0.00 0.00 0.00 91 1020.7
20260509115054 49 0 0.0 0.0 0.00 0.00 0.00 91 1020.7
20260509114602 49 0 0.0 0.0 0.00 0.00 0.00 90 1020.9
20260509114058 50 0 0.0 0.0 0.00 0.00 0.00 90 1020.7
20260509113556 50 0 0.0 3.0 0.00 0.00 0.00 90 1020.8
20260509113101 50 0 0.0 3.0 0.00 0.00 0.00 89 1020.8
20260509112557 51 17 1.0 3.0 0.00 0.00 0.00 89 1020.9
20260509112057 51 11 1.0 3.0 0.00 0.00 0.00 89 1020.9
20260509111607 51 15 1.0 3.0 0.00 0.00 0.00 89 1021.0
20260509111057 51 10 0.0 3.0 0.00 0.00 0.00 89 1021.2
20260509110557 51 15 1.0 3.0 0.00 0.00 0.00 89 1021.1
20260509110109 51 22 0.0 3.0 0.00 0.00 0.00 89 1021.2
20260509105557 51 22 0.0 3.0 0.00 0.00 0.00 89 1021.3
20260509105057 51 0 0.0 3.0 0.00 0.00 0.00 88 1021.3
20260509104559 51 0 0.0 3.0 0.00 0.00 0.00 88 1021.3
20260509104053 51 0 0.0 3.0 0.00 0.00 0.00 88 1021.3
20260509103556 51 0 0.0 3.0 0.00 0.00 0.00 88 1021.2
20260509103104 51 0 0.0 2.0 0.00 0.00 0.00 88 1021.1
20260509102558 51 0 0.0 1.0 0.00 0.00 0.00 87 1021.1
20260509102058 51 0 0.0 2.0 0.00 0.00 0.00 87 1021.2
20260509101623 51 0 0.0 2.0 0.00 0.00 0.00 86 1021.3
20260509101058 52 0 0.0 3.0 0.00 0.00 0.00 85 1021.2
20260509100558 52 16 0.0 3.0 0.00 0.00 0.00 85 1021.2
20260509100059 52 15 1.0 3.0 0.00 0.00 0.00 85 1021.3
20260509095558 52 18 1.0 5.0 0.00 0.00 0.00 85 1021.3
20260509095057 52 21 1.0 5.0 0.00 0.00 0.00 85 1021.4
20260509094603 52 11 1.0 3.0 0.00 0.00 0.00 85 1021.4
20260509094054 52 14 1.0 3.0 0.00 0.00 0.00 85 1021.4
20260509093554 53 360 1.0 4.0 0.00 0.00 0.00 85 1021.5
20260509093105 53 35 1.0 4.0 0.00 0.00 0.00 85 1021.5
20260509092554 53 24 2.0 4.0 0.00 0.00 0.00 85 1021.5
20260509092053 52 352 2.0 7.0 0.00 0.00 0.00 85 1021.4
20260509091602 52 348 2.0 7.0 0.00 0.00 0.00 85 1021.5
20260509091054 52 44 1.0 3.0 0.00 0.00 0.00 85 1021.6
20260509090554 52 51 1.0 2.0 0.00 0.00 0.00 85 1021.6
20260509085553 53 51 1.0 3.0 0.00 0.00 0.00 84 1021.7
20260509085053 53 46 0.0 2.0 0.00 0.00 0.00 84 1021.7
20260509084554 53 0 0.0 1.0 0.00 0.00 0.00 84 1021.7
20260509084053 53 46 0.0 1.0 0.00 0.00 0.00 84 1021.7
20260509083552 53 0 0.0 2.0 0.00 0.00 0.00 83 1021.7
20260509083055 53 0 0.0 4.0 0.00 0.00 0.00 82 1021.8
20260509082554 54 0 1.0 4.0 0.00 0.00 0.00 82 1021.8
20260509082054 54 13 1.0 4.0 0.00 0.00 0.00 82 1021.9
20260509081606 54 360 1.0 4.0 0.00 0.00 0.00 81 1021.9
20260509081054 54 20 1.0 4.0 0.00 0.00 0.00 81 1022.0
20260509080553 54 13 1.0 4.0 0.00 0.00 0.00 81 1022.1
20260509080055 54 5 0.0 2.0 0.00 0.00 0.00 81 1022.1
20260509075553 54 0 0.0 3.0 0.00 0.00 0.00 81 1022.1
20260509075056 54 0 0.0 4.0 0.00 0.00 0.00 80 1022.1
20260509074559 54 26 0.0 5.0 0.00 0.00 0.00 80 1022.1
20260509074056 54 15 1.0 5.0 0.00 0.00 0.00 80 1022.0
20260509073557 55 15 0.0 1.0 0.00 0.00 0.00 80 1022.0
20260509073105 55 5 0.0 4.0 0.00 0.00 0.00 80 1022.1
20260509072557 55 0 0.0 5.0 0.00 0.00 0.00 79 1022.0
20260509072057 55 17 0.0 5.0 0.00 0.00 0.00 79 1022.0
20260509071602 55 360 1.0 4.0 0.00 0.00 0.00 79 1022.1
20260509071054 55 5 0.0 2.0 0.00 0.00 0.00 78 1022.1
20260509070554 56 14 0.0 3.0 0.00 0.00 0.00 78 1022.0
20260509070057 56 14 1.0 3.0 0.00 0.00 0.00 77 1022.1
20260509065553 56 0 1.0 4.0 0.00 0.00 0.00 76 1022.1
20260509065053 56 5 1.0 5.0 0.00 0.00 0.00 76 1022.0
20260509064616 57 9 2.0 5.0 0.00 0.00 0.00 76 1022.0
20260509064058 57 352 2.0 5.0 0.00 0.00 0.00 75 1022.0
20260509063557 57 352 1.0 5.0 0.00 0.00 0.00 76 1022.0
20260509063055 57 13 1.0 5.0 0.00 0.00 0.00 75 1022.0
20260509062554 57 13 1.0 5.0 0.00 0.00 0.00 75 1021.9
20260509062054 57 0 1.0 5.0 0.00 0.00 0.00 74 1021.9
20260509061556 57 14 1.0 5.0 0.00 0.00 0.00 74 1021.8
20260509061058 57 17 1.0 4.0 0.00 0.00 0.00 73 1021.7
20260509060554 58 10 1.0 4.0 0.00 0.00 0.00 73 1021.7
20260509060057 58 11 1.0 4.0 0.00 0.00 0.00 72 1021.8
20260509055554 58 5 1.0 4.0 0.00 0.00 0.00 72 1021.7
20260509055057 58 0 0.0 4.0 0.00 0.00 0.00 72 1021.7
20260509054603 59 11 2.0 6.0 0.00 0.00 0.00 71 1021.7
20260509054057 59 24 2.0 6.0 0.00 0.00 0.00 71 1021.6
20260509053558 59 327 1.0 4.0 0.00 0.00 0.00 71 1021.7
20260509053105 59 21 1.0 9.0 0.00 0.00 0.00 70 1021.6
20260509052558 59 17 2.0 9.0 0.00 0.00 0.00 70 1021.6
20260509052057 60 0 1.0 4.0 0.00 0.00 0.00 69 1021.6
20260509051559 60 5 0.0 3.0 0.00 0.00 0.00 69 1021.5
20260509051054 60 5 0.0 4.0 0.00 0.00 0.00 69 1021.4
20260509050601 60 9 1.0 5.0 0.00 0.00 0.00 68 1021.5
20260509050058 60 11 1.0 5.0 0.00 0.00 0.00 68 1021.4
20260509045554 61 10 2.0 5.0 0.00 0.00 0.00 67 1021.4
20260509045058 61 346 2.0 8.0 0.00 0.00 0.00 67 1021.4
20260509044554 61 22 2.0 8.0 0.00 0.00 0.00 67 1021.3
20260509044056 61 11 1.0 3.0 0.00 0.00 0.00 67 1021.3
20260509043556 61 0 0.0 3.0 0.00 0.00 0.00 66 1021.3
20260509043100 61 0 0.0 4.0 0.00 0.00 0.00 66 1021.2
20260509042555 62 355 1.0 5.0 0.00 0.00 0.00 65 1021.2
20260509042057 62 5 1.0 8.0 0.00 0.00 0.00 64 1021.2
20260509041619 62 0 0.0 8.0 0.00 0.00 0.00 63 1021.1
20260509041058 63 0 3.0 8.0 0.00 0.00 0.00 62 1021.1
20260509040557 63 25 2.0 6.0 0.00 0.00 0.00 62 1021.1
20260509040056 63 37 1.0 6.0 0.00 0.00 0.00 61 1021.1
20260509035557 63 11 2.0 5.0 0.00 0.00 0.00 61 1021.0
20260509035058 63 27 1.0 6.0 0.00 0.00 0.00 61 1021.1
20260509034555 63 59 2.0 7.0 0.00 0.00 0.00 60 1020.9
20260509034055 63 10 2.0 8.0 0.00 0.00 0.00 59 1020.8
20260509033555 64 84 2.0 8.0 0.00 0.00 0.00 59 1020.8
20260509033115 64 49 0.0 5.0 0.00 0.00 0.00 59 1020.8
20260509032553 64 17 0.0 5.0 0.00 0.00 0.00 58 1020.7
20260509032055 64 0 1.0 5.0 0.00 0.00 0.00 58 1020.7
20260509031555 64 0 1.0 5.0 0.00 0.00 0.00 57 1020.5
20260509031058 65 9 0.0 4.0 0.00 0.00 0.00 57 1020.6
20260509030554 65 13 1.0 4.0 0.00 0.00 0.00 56 1020.5
20260509030058 65 0 0.0 2.0 0.00 0.00 0.00 57 1020.5
20260509025557 65 234 0.0 2.0 0.00 0.00 0.00 56 1020.5
20260509025054 65 234 0.0 1.0 0.00 0.00 0.00 57 1020.5
20260509024554 65 0 0.0 2.0 0.00 0.00 0.00 56 1020.4
20260509024054 65 0 0.0 2.0 0.00 0.00 0.00 55 1020.3
20260509023554 66 0 0.0 2.0 0.00 0.00 0.00 55 1020.3
20260509023108 66 234 0.0 2.0 0.00 0.00 0.00 56 1020.3
20260509022558 66 234 0.0 1.0 0.00 0.00 0.00 55 1020.2
20260509022054 66 0 0.0 1.0 0.00 0.00 0.00 55 1020.3
20260509021554 66 0 0.0 1.0 0.00 0.00 0.00 54 1020.3
20260509021053 66 0 0.0 1.0 0.00 0.00 0.00 54 1020.3
20260509020553 66 0 0.0 1.0 0.00 0.00 0.00 54 1020.4
20260509020100 66 0 0.0 1.0 0.00 0.00 0.00 54 1020.4
20260509015556 66 0 0.0 4.0 0.00 0.00 0.00 53 1020.4
20260509015055 66 0 0.0 4.0 0.00 0.00 0.00 55 1020.4
20260509014557 66 196 0.0 2.0 0.00 0.00 0.00 54 1020.4
20260509014053 66 0 0.0 2.0 0.00 0.00 0.00 53 1020.4
20260509013555 66 233 0.0 4.0 0.00 0.00 0.00 52 1020.4
20260509013102 67 274 0.0 4.0 0.00 0.00 0.00 53 1020.5
20260509012553 67 0 1.0 3.0 0.00 0.00 0.00 52 1020.5
20260509012053 67 296 1.0 3.0 0.00 0.00 0.00 51 1020.5
20260509011558 68 253 0.0 2.0 0.00 0.00 0.00 52 1020.5
20260509011055 67 146 0.0 3.0 0.00 0.00 0.00 51 1020.6
20260509010554 67 0 1.0 4.0 0.00 0.00 0.00 51 1020.7
20260509010057 68 276 0.0 4.0 0.00 0.00 0.00 50 1020.6
20260509005557 68 28 0.0 4.0 0.00 0.00 0.00 50 1020.6
20260509005054 68 0 1.0 4.0 0.00 0.00 0.00 50 1020.7
20260509004556 68 172 1.0 4.0 0.00 0.00 0.00 53 1020.7
20260509004053 67 0 1.0 4.0 0.00 0.00 0.00 52 1020.8
20260509003554 67 55 2.0 4.0 0.00 0.00 0.00 51 1020.7
20260509003057 67 0 1.0 4.0 0.00 0.00 0.00 52 1020.7
20260509002600 67 57 1.0 4.0 0.00 0.00 0.00 52 1020.7
20260509002057 67 123 1.0 4.0 0.00 0.00 0.00 52 1020.7
20260509001555 68 251 2.0 7.0 0.00 0.00 0.00 51 1020.8
20260509001057 67 248 1.0 7.0 0.00 0.00 0.00 51 1020.8
20260509000557 67 0 3.0 10.0 0.00 0.00 0.00 51 1020.8
20260509000115 68 274 2.0 10.0 0.00 0.00 0.00 51 1020.8
20260508235558 68 194 5.0 10.0 0.00 0.00 0.00 51 1021.0
20260508235058 67 273 1.0 7.0 0.00 0.00 0.00 51 1020.9
20260508234600 67 186 2.0 7.0 0.00 0.00 0.00 51 1020.8
20260508234100 67 219 3.0 8.0 0.00 0.00 0.00 51 1020.8
20260508233558 68 267 2.0 12.0 0.00 0.00 0.00 51 1020.8
20260508233113 67 283 3.0 12.0 0.00 0.00 0.00 52 1020.8
20260508232557 67 294 2.0 8.0 0.00 0.00 0.00 52 1020.9
20260508232057 66 237 2.0 8.0 0.00 0.00 0.00 53 1020.9
20260508231556 66 85 1.0 7.0 0.00 0.00 0.00 52 1020.9
20260508231057 65 15 2.0 16.0 0.00 0.00 0.00 54 1020.9
20260508230601 66 301 3.0 16.0 0.00 0.00 0.00 52 1020.9
20260508230100 67 252 2.0 8.0 0.00 0.00 0.00 51 1020.9
20260508225557 67 278 1.0 10.0 0.00 0.00 0.00 51 1021.0
20260508225057 66 0 2.0 10.0 0.00 0.00 0.00 52 1021.0
20260508224558 66 145 3.0 8.0 0.00 0.00 0.00 55 1020.9
20260508224057 66 269 2.0 9.0 0.00 0.00 0.00 51 1020.8
20260508223601 65 167 3.0 9.0 0.00 0.00 0.00 53 1020.9
20260508223057 65 166 3.0 10.0 0.00 0.00 0.00 53 1021.0
20260508222557 66 128 1.0 10.0 0.00 0.00 0.00 54 1020.9
20260508222057 65 281 4.0 10.0 0.00 0.00 0.00 52 1020.9
20260508221555 66 241 1.0 11.0 0.00 0.00 0.00 52 1021.1
20260508221058 65 290 4.0 11.0 0.00 0.00 0.00 52 1021.2
20260508220558 66 290 2.0 11.0 0.00 0.00 0.00 53 1021.3
20260508220059 65 295 1.0 13.0 0.00 0.00 0.00 52 1021.4
20260508215557 64 239 5.0 13.0 0.00 0.00 0.00 54 1021.4
20260508215101 65 268 2.0 9.0 0.00 0.00 0.00 54 1021.3
20260508214557 64 257 4.0 9.0 0.00 0.00 0.00 55 1021.3
20260508214057 64 300 1.0 9.0 0.00 0.00 0.00 54 1021.3
20260508213557 64 240 5.0 9.0 0.00 0.00 0.00 53 1021.3
20260508213055 64 200 4.0 10.0 0.00 0.00 0.00 55 1021.3
20260508212552 64 280 3.0 10.0 0.00 0.00 0.00 54 1021.3
20260508212056 64 119 3.0 8.0 0.00 0.00 0.00 54 1021.4
20260508211554 63 196 1.0 8.0 0.00 0.00 0.00 55 1021.4
20260508211058 62 124 3.0 13.0 0.00 0.00 0.00 56 1021.4
20260508210554 62 104 3.0 13.0 0.00 0.00 0.00 57 1021.3
20260508210056 63 119 3.0 13.0 0.00 0.00 0.00 56 1021.5
20260508205553 63 182 3.0 11.0 0.00 0.00 0.00 54 1021.4
20260508205053 63 262 3.0 10.0 0.00 0.00 0.00 54 1021.4
20260508204557 62 278 1.0 10.0 0.00 0.00 0.00 56 1021.5
20260508204053 62 106 3.0 10.0 0.00 0.00 0.00 54 1021.4
20260508203557 62 196 2.0 7.0 0.00 0.00 0.00 55 1021.4
20260508203055 62 145 3.0 8.0 0.00 0.00 0.00 57 1021.5